Mmabatho, South Africa

3:39 AM SAST on December 11, 2017 (GMT +0200)
Mmabatho

Weather History for FAMM - October, 2013

Change the Weather History Date:

Sunday, October 6, 2013

  Actual Average Record
Temperature  
Mean Temperature 74 °F -  
Max Temperature 93 °F - - ()
Min Temperature 56 °F - - ()
Cooling Degree Days 10    
Growing Degree Days 24 (Base 50)    
Moisture  
Dew Point 29 °F    
Average Humidity 19    
Maximum Humidity 34    
Minimum Humidity 4    
Precipitation  
Precipitation 0.00 in - - ()
Sea Level Pressure  
Sea Level Pressure 30.14 in    
Wind  
Wind Speed 4 mph ()    
Max Wind Speed 9 mph    
Max Gust Speed -    
Visibility 12.6 miles    
Events      
T = Trace of Precipitation, MM = Missing Value Source: Averaged Metar Reports

Daily Weather History Graph

Daily Weather History Graph

Search for Another Location

Airport or City:

Trip Planner

Search our weather history database for the weather conditions in past years. The results will help you decide how hot, cold, wet, or windy it might be!

Date:

Astronomy

Oct. 06, 2013 Rise Set
Actual Time 5:52 AM SAST 6:20 PM SAST
Civil Twilight 5:29 AM SAST 6:43 PM SAST
Nautical Twilight 5:02 AM SAST 7:10 PM SAST
Astronomical Twilight 4:34 AM SAST 7:37 PM SAST
Moon 6:37 AM SAST (10/6) 7:53 PM SAST (10/6)
Length of Visible Light 13h 13m
Length of Day
12h 27m
New Moon, 2% of the Moon is Illuminated
Oct 6
New Moon
Oct 12
First Quarter
Oct 19
Full
Oct 27
Last Quarter
Nov 3
New

Hourly Weather History & Observations

Time (SAST) Temp. Dew Point Humidity Pressure Visibility Wind Dir Wind Speed Gust Speed Precip Events Conditions
12:00 AM 60.8 °F 17.6 °F 19% 30.12 in - NNE 8.1 mph - N/A   Unknown
1:00 AM 60.8 °F 17.6 °F 19% 30.12 in - NNE 5.8 mph - N/A   Unknown
2:00 AM 60.8 °F 21.2 °F 22% 30.12 in - NE 4.6 mph - N/A   Unknown
3:00 AM 59.0 °F 21.2 °F 23% 30.12 in - SE 2.3 mph - N/A   Unknown
4:00 AM 59.0 °F 23.0 °F 25% 30.12 in - ESE 2.3 mph - N/A   Unknown
5:00 AM 57 °F 23 °F 16%  in 19 mi East 5.8 mph - -  
5:00 AM 55.4 °F 24.8 °F 31% 30.09 in - East 4.6 mph - N/A   Clear
6:00 AM 59.0 °F 30.2 °F 34% 30.15 in - SSE 8.1 mph - N/A   Clear
7:00 AM 64.4 °F 32.0 °F 30% 30.18 in - SE 5.8 mph - N/A   Clear
7:34 AM 68.0 °F 32.0 °F 26% 30.21 in - SE 3.5 mph - N/A   Clear
8:00 AM 70 °F 36 °F 18%  in 19 mi SE 3.5 mph - -  
8:00 AM 68.0 °F 35.6 °F 30% 30.21 in - SE 3.5 mph - N/A   Clear
8:36 AM 73.4 °F 37.4 °F 27% 30.21 in - NNE 1.2 mph - N/A   Clear
9:00 AM 73.4 °F 37.4 °F 27% 30.21 in - NW 3.5 mph - N/A   Unknown
9:43 AM 77.0 °F 35.6 °F 22% 30.21 in - NW 3.5 mph - N/A   Clear
10:00 AM 77.0 °F 37.4 °F 24% 30.21 in - NW 4.6 mph - N/A   Clear
11:00 AM 80.6 °F 37.4 °F 21% 30.18 in - West 4.6 mph - N/A   Clear
12:00 PM 82.4 °F 37.4 °F 20% 30.15 in - NNW 8.1 mph - N/A   Clear
1:00 PM 86.0 °F 33.8 °F 15% 30.12 in - WNW 4.6 mph - N/A   Clear
2:00 PM 89 °F 33 °F 7%  in 19 mi WNW 5.8 mph - -  
2:00 PM 87.8 °F 32.0 °F 14% 30.12 in - WNW 4.6 mph - N/A   Clear
3:00 PM 89.6 °F 32.0 °F 13% 30.09 in - West 5.8 mph - N/A   Clear
4:00 PM 89.6 °F 28.4 °F 11% 30.06 in 6.2 mi West 3.5 mph - N/A   Partly Cloudy
5:00 PM 90 °F 24 °F 4%  in 19 mi West 9.2 mph - -   Scattered Clouds
5:00 PM 89.6 °F 24.8 °F 10% 30.06 in 6.2 mi West 9.2 mph - N/A   Partly Cloudy
6:00 PM 86.0 °F 24.8 °F 11% 30.06 in 6.2 mi SSW 2.3 mph - N/A   Partly Cloudy
7:00 PM 80.6 °F 24.8 °F 13% 30.09 in 6.2 mi ESE 3.5 mph - N/A   Partly Cloudy
8:00 PM 79 °F 23 °F 6%  in 19 mi East 4.6 mph - -   Scattered Clouds
8:00 PM 78.8 °F 23.0 °F 13% 30.09 in 6.2 mi East 3.5 mph - N/A   Partly Cloudy
9:00 PM 77.0 °F 23.0 °F 13% 30.12 in - ENE 3.5 mph - N/A   Unknown
10:00 PM 69.8 °F 24.8 °F 18% 30.12 in - NNE 4.6 mph - N/A   Unknown
11:00 PM 68 °F 26 °F 11%  in - East 3.5 mph - -  
11:00 PM 66.2 °F 26.6 °F 23% 30.12 in - East 3.5 mph - N/A   Unknown